Location: Krakow
(50.0830°N, 19.9170°E)
Time: 11:48:33
(UTC+02:00)

A-11 Canister half - Pass Details

Date: 19 March 2026
Orbit: 1523 x 1684 km, 47.3° (Epoch: 16 April)

Event Time Altitude Azimuth Distance (km) Brightness Sun altitude
Rises 15:52:11 0° 287° (WNW) 4,763 12.4 17.8°
Reaches altitude 10° 15:56:44 10° 268° (W) 3,747 12.6 17.1°
Maximum altitude 16:02:02 17° 233° (SW) 3,215 12.7 16.3°
Drops below altitude 10° 16:07:16 10° 198° (SSW) 3,690 11.7 15.5°
Sets 16:11:45 0° 179° (S) 4,659 11.8 14.9°
